Weather in Skornyakovo

Russia / Lipetsk Oblast     52°40′20″N   38°55′21″E
temp.,
°C
wind,
m/s
gust,
m/s
humid.,
%
clouds,
%
prec.,
mm/h
press.,
hPa
HPBL,
m
31 july, sat
sat3100:00+18w37902 0.0 1007135
03:00+17w35930 0.0 100788
06:00+18w36850 0.0 1008171
09:00+25w465110 0.0 10081003
12:00+29wnw563412 0.0 10092387
15:00+30w572816 0.0 10082919
18:00+29w57336 0.0 10091971
21:00+24wnw235092 0.0 101049
1 august, sun
sun100:00+20wnw22655 0.0 101119
03:00+18wnw22718 0.0 101211
06:00+19wsw116743 0.0 101311
09:00+26s234450 0.0 1013561
12:00+31sw343224 0.0 10132429
15:00+33sw352472 0.0 10113195
18:00+32sw45265 0.0 10101136
21:00+25s463818 0.0 101180
2 august, mon
mon200:00+22s23479 0.0 101229
03:00+21ssw38670 0.0 1011128
06:00+21sse486757 0.0 1011174
09:00+29ssw68421 0.0 1010718
12:00+33ssw5930100 0.0 10092999
15:00+35sw8102353 0.0 10073431
18:00+33sw682584 0.0 10061698
21:00+28sw5123673 0.0 1005290
3 august, tue
tue300:00+24wsw61457100 0.2 1007760
03:00+19ssw379183 0.4 1007203
06:00+19ssw4990100 0.0 1008374
09:00+23sw796387 0.0 10081012
12:00+24w8950100 0.0 10091319
15:00+27w6839100 0.0 10092386
18:00+24nw674593 0.0 10101928
21:00+19n23620 0.0 101235
4 august, wed
wed400:00+16nw22754 0.0 101326
03:00+15wnw22885 0.0 101411
06:00+16wnw23801 0.0 101590
09:00+22wnw335169 0.0 1015915
12:00+26nw343595 0.0 10152565
15:00+26w342986 0.0 10152649
18:00+24nnw563659 0.0 1016912
21:00+18n33555 0.0 101733